Weather History for Covington, KY

Change the Weather History Date:

Tuesday, December 18, 2012

  Actual Average Record
Temperature  
Mean Temperature 40 °F 33 °F  
Max Temperature 44 °F 41 °F 67 °F (1877)
Min Temperature 35 °F 26 °F -3 °F (1989)
Degree Days  
Heating Degree Days 25 32  
Month to date heating degree days 339 529  
Since 1 July heating degree days 1445 1489  
Cooling Degree Days 0 0  
Month to date cooling degree days 0 0  
Year to date cooling degree days 1439 1121  
Moisture  
Dew Point 36 °F    
Average Humidity 87    
Maximum Humidity 100    
Minimum Humidity 73    
Precipitation  
Precipitation T in 0.10 in 2.04 in (1990)
Month to date precipitation 3.68 1.95  
Year to date precipitation 36.71 41.10  
Snow  
Snow 0.00 in 0.10 in 3.80 in (1951)
Month to date snowfall T 2.3  
Since 1 July snowfall T 3.1  
Snow Depth 0.00 in    
Sea Level Pressure  
Sea Level Pressure 29.78 in    
Wind  
Wind Speed 10 mph (WSW)    
Max Wind Speed 20 mph    
Max Gust Speed 25 mph    
Visibility 8 miles    
Events      
T = Trace of Precipitation, MM = Missing Value Source: NWS Daily Summary

Daily Weather History Graph

Daily Weather History Graph

Search for Another Location

Airport:

Trip Planner

Search our weather history database for the weather conditions in past years. The results will help you decide how hot, cold, wet, or windy it might be!

Date:

Astronomy

Dec. 18, 2012 Rise Set
Actual Time 7:52 AM EST 5:18 PM EST
Civil Twilight 7:22 AM EST 5:48 PM EST
Nautical Twilight 6:49 AM EST 6:22 PM EST
Astronomical Twilight 6:16 AM EST 6:54 PM EST
Moon 11:34 AM EST (12/18) 11:40 PM EST (12/18)
Length of Visible Light 10h 25m
Length of Day
9h 25m
Waxing Crescent, 34% of the Moon is Illuminated
Dec 18
Waxing Crescent
Dec 20
First Quarter
Dec 28
Full
Jan 4
Last Quarter
Jan 11
New

Hourly Weather History & Observations

Time (EST) Temp. Windchill Dew Point Humidity Pressure Visibility Wind Dir Wind Speed Gust Speed Precip Events Conditions
12:52 AM 44.1 °F 39.5 °F 42.1 °F 93% 29.63 in 7.0 mi WNW 8.1 mph - N/A   Overcast
1:52 AM 43.0 °F 37.2 °F 42.1 °F 97% 29.65 in 5.0 mi West 10.4 mph - N/A   Overcast
2:29 AM 42.8 °F 36.2 °F 41.0 °F 93% 29.67 in 4.0 mi WNW 12.7 mph - N/A   Overcast
2:49 AM 42.8 °F 36.2 °F 39.2 °F 87% 29.68 in 7.0 mi WNW 12.7 mph - N/A   Overcast
2:52 AM 42.1 °F 35.2 °F 39.9 °F 92% 29.68 in 7.0 mi WNW 12.7 mph - N/A   Overcast
3:52 AM 41.0 °F 34.7 °F 39.0 °F 93% 29.71 in 10.0 mi WNW 10.4 mph - 0.00 in   Overcast
4:35 AM 39.2 °F 31.2 °F 37.4 °F 93% 29.72 in 9.0 mi WNW 13.8 mph 21.9 mph N/A   Overcast
4:52 AM 39.9 °F 32.9 °F 37.0 °F 89% 29.73 in 9.0 mi WNW 11.5 mph - N/A   Overcast
5:42 AM 39.2 °F 30.8 °F 35.6 °F 87% 29.75 in 5.0 mi WNW 15.0 mph - 0.00 in   Overcast
5:52 AM 39.0 °F 31.0 °F 36.0 °F 89% 29.76 in 5.0 mi WNW 13.8 mph 21.9 mph 0.00 in   Overcast
6:52 AM 39.0 °F 31.8 °F 36.0 °F 89% 29.79 in 5.0 mi WNW 11.5 mph - N/A   Overcast
7:02 AM 39.2 °F 32.5 °F 35.6 °F 87% 29.79 in 5.0 mi WNW 10.4 mph - N/A   Overcast
7:52 AM 39.0 °F 32.8 °F 36.0 °F 89% 29.82 in 6.0 mi West 9.2 mph - N/A   Overcast
8:52 AM 37.9 °F 32.1 °F 35.1 °F 89% 29.84 in 6.0 mi West 8.1 mph - N/A   Overcast
9:27 AM 37.4 °F 30.3 °F 35.6 °F 93% 29.84 in 5.0 mi West 10.4 mph - N/A   Overcast
9:52 AM 37.9 °F 32.1 °F 35.1 °F 89% 29.86 in 7.0 mi West 8.1 mph - N/A   Overcast
10:52 AM 37.9 °F 30.0 °F 34.0 °F 86% 29.89 in 8.0 mi West 12.7 mph - N/A   Overcast
11:52 AM 39.0 °F 33.4 °F 34.0 °F 82% 29.88 in 10.0 mi SW 8.1 mph - N/A   Overcast
12:52 PM 39.9 °F 35.1 °F 35.1 °F 83% 29.87 in 10.0 mi SSW 6.9 mph - N/A   Overcast
1:52 PM 39.0 °F 34.8 °F 34.0 °F 82% 29.85 in 9.0 mi SSW 5.8 mph - N/A   Overcast
2:52 PM 39.0 °F 32.3 °F 34.0 °F 82% 29.86 in 10.0 mi SSW 10.4 mph - N/A   Overcast
3:40 PM 39.2 °F 31.2 °F 35.6 °F 87% 29.84 in 10.0 mi South 13.8 mph - N/A   Overcast
3:52 PM 39.9 °F 33.4 °F 35.1 °F 83% 29.84 in 10.0 mi SSW 10.4 mph - N/A   Overcast
4:33 PM 39.2 °F 32.5 °F 35.6 °F 87% 29.82 in 10.0 mi South 10.4 mph 19.6 mph N/A   Mostly Cloudy
4:52 PM 39.9 °F 32.1 °F 35.1 °F 83% 29.81 in 10.0 mi South 13.8 mph - N/A   Mostly Cloudy
5:52 PM 39.0 °F 30.6 °F 35.1 °F 86% 29.78 in 10.0 mi South 15.0 mph - N/A   Mostly Cloudy
6:52 PM 39.9 °F 31.8 °F 36.0 °F 86% 29.74 in 10.0 mi South 15.0 mph - N/A   Overcast
7:52 PM 39.9 °F 35.1 °F 35.1 °F 83% 29.76 in 10.0 mi South 6.9 mph - N/A   Partly Cloudy
8:52 PM 37.0 °F 33.3 °F 33.1 °F 86% 29.78 in 10.0 mi South 4.6 mph - N/A   Clear
9:52 PM 39.0 °F 35.7 °F 34.0 °F 82% 29.78 in 10.0 mi SSW 4.6 mph - N/A   Clear
10:52 PM 41.0 °F 37.1 °F 34.0 °F 76% 29.78 in 10.0 mi SSW 5.8 mph - N/A   Clear
11:52 PM 42.1 °F 37.1 °F 34.0 °F 73% 29.79 in 10.0 mi SSW 8.1 mph - N/A   Partly Cloudy